GFSNGP_925_temp_276.txt.gz
Temp
29 31 34 35 36 35 33 31 32 31 30 31 31 28 30 31 31 30 27 27 27 27 26 26 25 25 25 26 26 26 25 24 24 23 23 23 23 22 21 21 21 20 20 20
33 32 32 35 34 34 34 35 34 31 32 31 29 29 29 28 28 26 28 29 28 28 26 26 26 25 25 26 26 26 25 24 24 23 23 23 22 22 21 21 20 20 20 20
31 31 32 31 33 30 30 29 30 28 30 29 28 29 28 28 28 28 28 29 29 28 27 27 26 26 25 25 26 24 25 24 24 23 22 22 22 21 21 20 20 20 20 20
27 29 31 31 31 31 30 30 29 29 29 29 29 29 28 28 28 29 31 29 28 28 28 28 27 26 26 22 22 22 23 23 23 22 22 22 22 21 21 20 20 19 19 19
27 26 30 31 31 33 28 28 30 28 29 29 29 29 29 28 25 24 23 23 24 29 29 27 26 23 21 20 17 16 16 19 22 22 21 21 21 20 20 20 19 19 19 19
25 30 29 29 30 31 28 27 30 29 29 29 27 26 25 27 25 23 22 20 21 26 20 19 18 18 19 18 18 18 17 17 17 20 21 21 21 21 20 19 19 19 19 19
25 28 28 30 30 30 31 27 29 30 29 29 28 26 27 25 23 22 21 19 18 18 17 18 21 22 19 18 20 17 17 17 18 20 20 20 20 20 20 19 19 19 19 19
24 25 28 30 30 28 26 27 29 29 28 28 26 27 26 22 21 20 20 19 20 19 18 19 21 22 18 18 18 20 17 18 18 19 19 19 20 20 19 19 19 19 19 19
26 25 25 27 27 27 26 28 30 29 27 27 26 26 22 21 20 20 19 18 18 17 16 18 18 19 16 16 16 20 18 18 19 19 20 20 20 19 19 18 18 19 18 18
25 26 26 26 27 27 28 29 25 25 25 24 24 22 22 21 19 19 19 17 17 16 16 16 17 17 17 18 18 18 18 19 19 20 20 20 19 19 19 18 19 18 18 18
23 26 26 27 27 28 29 26 25 24 24 23 22 20 20 20 19 19 18 18 18 18 17 17 19 18 17 18 18 18 19 20 20 20 20 20 19 19 19 20 20 20 20 19
23 24 24 26 28 29 29 25 24 23 22 22 21 19 19 19 19 19 18 18 18 18 18 17 17 17 17 18 18 18 19 20 20 20 21 20 20 20 20 20 20 20 20 20
24 25 25 29 27 30 24 23 23 22 20 19 19 19 19 18 18 19 19 19 19 19 18 17 17 18 18 18 18 19 20 20 19 20 21 21 20 20 20 20 21 20 20 19
27 27 28 27 26 24 23 21 21 20 19 19 18 17 17 17 17 16 16 17 17 17 16 17 18 17 18 18 19 18 19 20 20 20 20 19 19 18 19 18 19 19 18 18
25 24 25 24 22 21 22 21 19 18 19 18 18 17 16 15 15 15 16 16 16 16 16 17 17 16 18 18 18 19 19 20 19 19 19 19 19 18 17 17 16 16 16 16
22 22 21 20 20 20 20 18 17 17 18 18 17 16 16 15 15 15 15 14 15 14 15 16 16 16 18 18 19 19 19 19 19 19 19 19 18 18 17 16 15 15 15 15
22 19 19 18 19 18 18 18 17 16 17 17 17 16 15 14 14 14 14 14 14 14 14 15 15 16 17 18 18 18 19 18 18 18 17 17 16 16 16 15 14 14 14 13
19 18 17 17 17 16 16 16 16 15 16 15 16 15 15 15 14 14 14 14 14 14 13 14 15 16 16 16 17 17 17 17 17 16 16 16 15 15 15 14 14 14 13 13
18 17 17 17 17 16 16 15 15 15 15 15 14 13 14 14 14 13 13 13 13 12 12 14 14 15 16 16 16 16 16 16 15 15 15 15 14 14 14 14 14 14 14 13
17 16 16 15 15 15 15 15 14 14 14 15 14 13 12 12 13 12 12 11 12 12 13 13 13 14 15 15 15 15 15 14 14 14 14 14 14 14 13 13 13 13 13 13
16 16 15 15 14 13 13 13 13 13 13 14 13 12 12 12 13 13 12 11 12 13 12 13 13 13 14 14 14 14 14 13 13 13 13 13 13 13 13 13 13 13 13 12
15 14 14 13 13 12 13 14 14 13 13 13 13 13 12 12 12 12 12 12 12 13 13 13 13 13 13 13 13 13 13 13 13 13 12 13 13 13 13 12 12 13 13 13
14 14 13 13 13 13 14 14 14 13 13 13 13 13 13 13 13 12 11 12 13 13 13 13 13 13 13 13 13 13 13 13 13 13 13 13 13 13 13 13 13 13 13 13
13 13 13 14 14 14 12 14 14 14 14 14 14 14 13 13 13 13 13 13 13 13 13 13 13 13 13 13 13 13 13 13 13 13 13 13 13 13 12 13 12 12 11 11
14 14 14 14 13 13 14 14 14 14 15 14 14 15 14 14 14 14 14 14 13 13 13 13 13 13 13 13 13 13 13 14 13 13 14 13 13 13 12 12 12 12 11 11
15 14 15 15 15 15 15 15 14 14 14 14 14 14 14 14 14 14 14 14 14 13 14 14 14 14 14 14 14 14 14 14 14 14 14 14 13 13 13 13 13 12 12 12
16 16 15 15 15 15 15 15 14 14 15 15 15 15 15 15 15 15 14 15 15 15 15 15 15 14 14 14 14 14 14 14 14 14 14 14 14 14 13 13 13 12 12 12

GFSNGP_925_temp_279.txt.gz
Temp
29 31 31 33 33 32 31 28 31 31 29 32 29 28 26 27 28 26 25 24 25 25 25 24 24 24 24 24 24 25 25 24 24 24 23 23 22 22 22 21 21 21 20 20
31 31 32 33 30 30 30 30 32 29 31 25 27 27 27 28 27 27 26 26 26 26 25 24 24 24 23 23 22 22 23 22 23 23 22 22 22 21 21 21 20 20 20 20
29 30 31 30 30 28 28 27 28 27 27 26 27 28 26 29 27 27 28 27 26 25 25 25 25 24 24 24 23 22 20 19 19 18 20 21 21 21 21 21 20 20 20 19
26 28 30 29 29 29 28 28 27 27 28 28 27 26 24 24 25 25 24 25 25 25 26 26 26 23 20 20 20 19 18 18 19 19 17 17 18 20 21 20 20 20 19 19
26 25 29 30 29 31 29 28 28 27 27 28 28 26 24 24 23 23 22 21 21 22 26 25 23 20 20 20 20 18 17 19 17 19 19 20 18 17 19 19 19 19 19 19
22 28 27 27 30 29 28 26 29 28 27 27 26 24 24 22 22 21 20 19 19 20 20 19 17 19 20 18 18 21 21 23 19 22 17 17 17 17 19 19 19 19 19 19
23 26 26 27 29 28 30 27 28 28 28 27 25 25 23 21 21 20 19 18 19 19 17 17 18 19 19 19 19 19 18 18 19 19 19 19 18 17 18 19 19 19 19 19
22 24 29 28 30 31 25 25 27 27 27 25 23 22 21 20 20 19 18 19 18 18 18 19 19 19 18 17 17 18 18 18 17 17 17 16 16 17 17 19 19 19 18 18
25 24 24 26 28 25 25 25 27 24 25 23 22 21 20 20 18 18 17 17 17 18 17 17 18 19 17 16 17 18 18 18 17 17 16 16 16 17 18 19 19 18 18 18
24 26 25 25 25 26 25 23 23 22 22 22 21 21 20 19 18 18 17 17 17 17 16 15 16 17 16 17 17 18 18 18 18 17 17 17 18 18 19 18 18 18 18 18
22 25 25 26 26 24 23 23 22 22 22 21 21 20 20 19 18 18 17 17 18 17 16 16 17 18 18 18 18 18 18 19 20 20 19 18 18 19 19 20 20 20 20 19
23 23 23 25 25 23 23 22 21 21 19 19 19 19 19 18 18 18 17 18 18 17 17 17 17 17 17 18 17 18 18 19 20 20 20 18 19 19 19 19 19 19 19 18
23 22 24 24 23 23 22 21 20 19 19 19 18 18 18 17 17 18 18 17 17 16 17 16 16 16 17 17 19 18 17 18 20 20 19 18 19 19 18 19 19 20 19 18
23 24 24 24 21 21 21 20 19 18 17 18 18 17 17 16 16 17 16 16 16 16 15 16 16 16 17 18 19 19 19 19 18 18 18 19 19 18 18 18 17 16 16 17
22 21 21 21 21 20 20 19 18 17 17 16 16 16 16 16 15 15 15 15 15 15 15 15 16 16 17 19 19 18 19 18 18 19 18 19 19 18 18 17 16 15 15 15
20 21 21 21 20 19 19 18 18 17 17 16 15 15 15 14 14 14 14 14 14 12 14 15 15 15 17 18 18 18 18 18 17 17 17 17 17 16 16 16 15 14 14 14
19 19 19 19 19 18 18 17 17 16 16 15 15 14 13 13 13 13 12 13 13 13 13 14 14 16 17 17 18 18 17 17 17 16 16 16 15 15 14 14 13 13 13 13
20 19 19 19 17 17 16 15 15 15 16 15 14 14 13 13 12 12 12 13 14 14 13 14 14 15 16 17 17 17 16 16 16 15 15 15 15 14 14 13 13 13 13 13
18 17 16 16 16 15 15 15 15 15 15 14 14 13 13 13 12 12 13 13 13 12 12 14 14 15 16 16 16 16 15 15 14 14 14 14 14 14 13 13 13 13 13 13
16 15 15 15 15 14 14 14 14 14 13 13 12 12 11 12 12 13 13 11 12 12 12 13 14 14 14 14 14 14 14 14 13 13 13 13 13 13 13 13 13 12 12 12
15 14 14 14 13 13 13 13 13 12 13 13 13 12 12 12 12 12 12 11 12 12 13 13 13 13 14 13 14 13 13 13 13 13 12 12 12 12 12 13 13 13 13 13
14 14 13 13 12 11 13 13 13 13 13 13 13 12 12 11 12 12 12 12 12 12 12 13 13 13 13 13 13 13 13 13 13 13 13 13 13 13 13 13 13 13 13 13
13 13 12 12 12 12 13 13 13 13 12 12 12 12 12 12 12 11 10 12 12 13 13 13 12 13 13 13 12 13 13 13 12 12 12 13 13 13 12 12 12 12 12 12
12 12 12 13 13 13 11 12 13 13 14 13 14 14 13 13 12 13 12 12 12 13 13 13 13 13 13 13 13 13 13 13 13 13 13 13 13 13 13 13 12 12 12 12
12 12 13 13 12 11 12 13 13 13 14 13 13 14 14 13 14 13 13 13 13 13 13 13 13 13 13 13 13 13 14 14 13 13 14 14 14 13 13 13 13 13 12 12
13 12 13 14 14 13 13 13 13 13 14 13 13 14 14 14 14 14 14 14 14 14 14 14 14 14 14 14 14 14 14 14 14 14 14 14 13 13 13 13 13 12 13 12
13 14 13 13 14 14 14 14 14 13 14 14 14 14 14 15 15 14 14 14 14 15 15 15 14 14 14 14 14 14 14 14 14 14 14 14 14 13 13 13 13 13 12 11

GFSNGP_925_temp_285.txt.gz
Temp
33 33 34 35 34 31 34 34 36 34 34 32 30 29 29 30 30 30 30 29 29 28 27 25 25 24 24 25 24 24 23 24 23 23 22 21 21 22 21 20 20 21 19 19
34 32 33 34 32 33 32 31 31 32 32 30 29 29 29 29 30 30 30 29 29 28 28 26 26 25 25 24 24 24 23 24 22 21 20 20 20 19 19 20 19 18 19 18
34 32 33 34 33 33 31 31 33 33 32 30 30 29 28 29 29 29 28 28 28 27 27 27 26 25 25 24 23 22 21 20 19 20 19 19 20 21 19 18 18 18 18 18
33 32 32 31 30 31 31 30 31 32 30 30 29 28 28 27 28 27 26 25 25 24 23 23 24 24 23 22 21 20 19 18 18 18 19 20 21 22 23 19 18 18 18 18
32 32 30 30 30 31 33 30 30 31 30 30 29 30 29 27 26 25 24 23 23 22 20 20 20 19 19 19 19 19 18 18 17 17 18 18 19 18 18 17 17 18 18 18
29 31 31 34 32 32 33 31 31 31 31 31 30 33 32 27 26 25 23 21 20 20 19 18 18 18 18 18 18 17 18 19 19 19 18 18 18 17 18 17 17 18 17 17
31 31 31 31 32 31 32 33 31 31 31 30 31 30 27 26 24 23 21 20 19 18 18 18 18 18 18 18 18 18 18 17 17 16 16 16 17 17 17 17 16 17 16 17
29 31 32 31 30 32 32 30 31 30 30 30 28 26 26 25 23 22 21 19 19 18 18 18 19 19 18 17 17 17 17 17 16 16 16 16 16 16 17 16 16 15 15 16
33 34 27 30 32 30 32 30 29 30 29 29 27 26 26 24 22 21 19 17 18 18 18 17 17 18 18 17 17 18 18 17 17 16 16 16 15 16 16 16 16 15 15 15
29 28 28 28 28 29 30 30 29 30 29 29 28 26 24 23 22 21 20 19 19 19 18 18 17 17 17 17 17 18 18 18 17 17 16 16 16 15 15 15 15 15 15 14
26 26 27 27 29 29 28 29 28 27 27 28 27 25 22 21 21 20 19 19 19 19 18 18 17 17 17 17 17 18 19 18 17 16 16 16 16 15 15 15 16 15 15 15
31 28 29 28 27 28 28 28 27 27 25 25 25 22 20 21 20 19 19 18 17 17 16 16 16 16 17 17 17 18 17 17 17 18 17 16 16 15 16 15 16 16 16 16
28 29 30 28 27 28 28 27 27 27 25 23 22 21 19 19 17 16 16 16 16 16 16 16 16 16 16 16 17 17 17 18 18 18 18 18 17 16 14 13 15 15 15 16
28 27 26 27 26 27 26 24 23 22 22 20 18 18 18 17 16 16 15 15 15 15 15 15 15 16 17 16 16 17 17 18 18 18 17 17 16 15 14 15 14 12 14 15
27 31 28 27 26 25 24 23 23 21 19 18 17 17 17 16 16 15 15 15 15 15 14 15 15 15 17 16 17 17 18 18 18 18 17 16 16 15 14 14 13 13 13 13
26 26 26 26 25 23 23 23 20 17 17 17 17 16 15 15 14 13 14 15 16 14 14 14 14 15 17 16 16 17 16 16 16 16 16 16 16 16 15 14 14 14 14 13
25 25 25 24 24 23 23 22 20 17 17 17 15 14 13 13 13 14 14 14 13 13 13 13 14 14 15 15 15 15 15 15 15 15 15 15 15 15 15 14 14 15 14 12
27 26 25 24 23 22 21 20 18 16 16 15 13 13 15 16 15 14 13 13 14 13 13 13 14 15 16 16 15 15 14 14 14 14 14 14 14 14 14 14 14 14 14 12
25 23 23 22 21 21 19 19 17 15 14 14 15 15 14 14 14 13 14 13 12 12 12 13 14 14 14 15 14 14 14 14 14 13 13 13 13 13 14 14 14 13 13 13
21 20 19 19 19 19 18 16 15 15 15 15 14 14 13 13 12 12 12 11 11 12 12 13 13 13 13 14 14 14 14 14 14 13 13 14 14 14 14 13 13 14 13 13
19 19 18 18 17 17 17 16 15 15 15 15 14 14 13 12 12 12 13 14 11 11 12 13 13 13 12 13 13 13 13 13 13 13 13 13 14 14 13 13 13 13 13 13
17 17 15 15 15 14 15 15 15 14 14 13 13 12 12 11 11 11 11 13 11 12 12 12 12 12 12 12 13 13 13 13 13 13 13 13 13 13 13 13 13 13 13 13
15 15 14 14 14 13 14 14 14 14 13 13 13 13 13 13 13 14 13 11 12 12 12 12 12 12 12 12 12 13 13 13 13 13 13 13 13 13 13 13 13 13 13 13
15 15 14 14 13 14 14 14 14 13 13 12 12 12 12 13 12 12 11 12 12 12 13 12 12 12 12 13 13 13 13 13 13 13 13 12 13 13 13 14 14 14 13 12
14 14 14 15 15 15 14 13 13 12 12 12 11 11 12 12 14 12 12 12 13 12 13 13 13 13 13 13 13 13 13 13 13 13 13 13 14 14 14 14 13 12 11 12
15 16 15 15 15 14 13 14 14 13 13 13 12 12 12 12 13 13 13 13 12 13 13 13 13 13 13 13 13 13 13 13 13 13 13 13 13 13 13 13 12 12 12 12
14 13 14 14 14 14 14 14 14 13 14 14 13 13 13 13 12 13 13 13 13 13 13 13 13 13 13 13 13 13 13 14 14 13 13 13 13 12 12 12 12 12 11 11

GFSNGP_925_temp_291.txt.gz
Temp
40 42 42 41 41 41 41 41 41 41 41 40 40 40 39 39 38 38 38 38 37 37 35 34 32 31 31 30 31 31 31 31 30 29 29 29 29 28 27 25 24 23 23 23
40 41 41 40 41 41 41 41 41 41 40 41 39 39 39 38 37 36 35 34 33 33 32 31 31 31 30 30 29 29 29 29 29 28 27 27 26 26 24 24 24 23 23 23
38 40 40 39 41 41 41 41 41 40 41 39 38 38 37 36 35 34 33 32 32 31 30 29 30 29 30 28 27 27 24 23 23 23 21 22 22 22 22 23 21 21 22 22
39 39 36 40 43 42 41 41 41 41 39 39 37 37 37 36 34 32 32 31 30 30 28 27 26 25 25 23 23 22 21 20 20 20 19 19 20 20 20 19 19 19 21 21
38 38 39 39 40 40 40 39 41 40 39 38 37 36 34 34 33 32 31 30 30 29 27 25 24 23 23 22 21 21 20 19 19 19 19 19 19 20 21 21 21 21 22 21
38 37 37 39 41 42 42 38 40 40 38 38 38 38 34 33 33 31 29 28 28 27 26 24 23 23 22 22 22 21 20 20 20 20 21 21 20 19 19 20 20 20 21 21
38 37 39 42 41 41 37 38 40 40 39 39 37 36 34 33 31 29 29 28 26 25 24 22 23 23 23 23 22 21 20 21 21 20 21 20 19 19 18 19 19 20 20 20
38 37 37 41 39 38 39 40 40 40 39 38 36 35 33 32 31 30 29 28 26 24 22 23 23 23 23 21 21 21 21 21 20 20 20 19 19 17 16 18 18 18 17 17
39 39 40 40 40 41 41 39 39 39 39 38 36 34 32 31 30 29 28 27 26 25 24 23 23 23 22 21 21 21 21 20 20 19 19 20 19 18 16 15 15 15 15 15
40 39 40 40 41 41 41 40 39 39 38 37 35 34 32 31 30 29 28 27 26 25 24 22 23 23 22 21 21 22 21 21 21 20 18 17 18 20 19 18 17 16 14 14
37 38 39 40 40 40 40 40 39 38 37 37 35 33 31 30 29 28 27 26 25 23 21 20 21 21 22 22 22 21 22 21 22 20 18 17 15 16 18 16 17 18 17 16
38 37 38 38 39 39 39 38 38 36 36 35 33 31 30 29 27 26 25 23 23 22 21 21 22 22 21 22 22 22 23 22 21 21 20 21 20 16 15 15 16 16 15 15
39 40 39 40 38 39 37 37 36 35 34 32 30 29 28 27 25 23 23 24 23 23 22 22 21 21 21 21 22 22 23 22 23 22 23 21 20 20 18 14 14 14 15 15
37 38 38 38 37 38 37 36 33 33 31 30 29 27 25 24 22 24 23 22 22 22 22 21 21 21 22 22 21 21 21 20 21 21 20 20 19 18 18 18 18 16 15 15
36 39 39 38 37 36 36 34 33 31 30 29 26 25 24 24 23 23 23 23 22 22 22 21 21 20 21 22 22 21 22 21 21 20 21 21 20 19 19 19 19 19 16 15
37 38 38 37 36 35 34 33 30 28 28 26 25 24 24 23 23 22 22 22 22 21 20 19 19 19 20 20 20 20 19 18 19 20 20 20 20 21 21 21 21 20 19 17
35 35 36 35 34 33 32 31 28 27 26 25 24 23 23 22 22 21 21 20 19 19 18 18 17 18 18 19 20 20 21 19 19 20 20 20 21 21 21 21 20 20 19 16
35 37 36 35 33 32 31 28 26 25 24 23 23 23 22 22 22 21 20 20 19 18 18 17 17 17 18 19 20 20 21 21 20 20 20 20 20 20 20 19 19 19 19 16
35 36 35 33 32 31 28 26 25 23 22 22 22 22 22 21 20 20 20 19 19 18 17 17 17 18 17 18 18 21 21 21 20 19 19 19 20 19 19 19 19 19 19 18
34 34 33 32 29 27 26 25 23 22 22 21 22 22 21 20 19 19 19 19 20 18 18 17 18 18 17 17 18 20 20 20 19 19 18 19 19 19 19 18 18 18 18 18
33 32 31 28 27 25 23 23 22 22 22 22 21 21 19 19 18 18 18 19 17 17 17 16 18 18 18 18 19 20 19 19 19 18 18 18 19 19 19 18 18 18 18 18
30 29 28 26 24 23 23 23 22 22 22 21 20 19 18 18 18 19 19 18 16 16 18 18 17 15 16 17 19 19 19 18 19 19 19 18 18 18 18 18 18 18 18 18
28 27 25 24 24 24 23 23 22 21 21 20 19 18 19 19 19 19 18 17 17 16 18 16 14 14 15 15 18 18 18 18 18 18 18 18 18 18 18 18 18 18 18 17
26 25 24 23 23 23 22 22 21 20 19 19 19 19 19 20 20 19 17 16 16 16 17 15 14 14 15 17 18 18 18 18 17 17 17 17 18 18 18 18 18 17 17 16
24 23 23 22 22 22 21 20 20 19 19 19 18 18 19 20 19 18 17 16 15 16 16 14 14 15 15 18 18 17 17 17 17 17 17 18 18 18 17 17 17 16 15 14
22 23 22 23 22 22 21 21 20 19 19 19 19 19 19 19 18 17 16 16 16 16 18 16 16 15 17 17 17 17 17 18 17 18 17 18 18 17 17 17 16 16 16 15
20 20 19 19 20 20 20 20 20 20 20 20 20 19 19 18 18 18 17 17 17 18 18 18 17 16 17 17 17 17 18 18 18 18 18 18 18 17 17 16 16 15 14 14